N6564S KFLO-KMDT

Flight info

Callsign N6564S
Flight time 2h 5m
Altitude 19000
Route LCAPE PEETT LORAA WOOLY EMI SAAME
Aircraft B58T/L-SDFRY/C

Departure

Time 2026-04-23 00:35
Airport Florence Regional Airport (KFLO)

Arrival

Time 2026-04-23 02:41
Airport Harrisburg International Airport (KMDT)
Time Latitude Longitude Altitude Speed Heading
2026-04-23 00:07 34.19149 -79.73265 146 ft 0 kts 301°
2026-04-23 00:20 34.19145 -79.73256 146 ft 2 kts 301°
2026-04-23 00:21 34.19143 -79.73252 145 ft 0 kts 301°
2026-04-23 00:21 34.19143 -79.73253 145 ft 1 kts 301°
2026-04-23 00:21 34.19139 -79.73263 146 ft 5 kts 181°
2026-04-23 00:21 34.19135 -79.73242 145 ft 0 kts 81°
2026-04-23 00:22 34.19135 -79.73241 145 ft 1 kts 81°
2026-04-23 00:23 34.19132 -79.73182 145 ft 14 kts 118°
2026-04-23 00:23 34.19090 -79.73031 143 ft 21 kts 105°
2026-04-23 00:23 34.19048 -79.72854 142 ft 23 kts 109°
2026-04-23 00:23 34.18998 -79.72650 142 ft 27 kts 95°
2026-04-23 00:24 34.18989 -79.72580 142 ft 1 kts 96°
2026-04-23 00:24 34.18976 -79.72558 142 ft 0 kts 160°
2026-04-23 00:34 34.18969 -79.72547 141 ft 7 kts 109°
2026-04-23 00:34 34.18959 -79.72454 140 ft 9 kts 129°
2026-04-23 00:34 34.18898 -79.72440 140 ft 21 kts 182°
2026-04-23 00:35 34.18492 -79.72441 135 ft 88 kts 180°
2026-04-23 00:35 34.18018 -79.72447 179 ft 108 kts 183°
2026-04-23 00:35 34.16890 -79.72418 460 ft 125 kts 175°
2026-04-23 00:35 34.16105 -79.72105 864 ft 125 kts 140°
2026-04-23 00:36 34.15648 -79.71111 1165 ft 132 kts 114°
2026-04-23 00:36 34.15562 -79.70012 1503 ft 138 kts 86°
2026-04-23 00:36 34.15759 -79.69223 1601 ft 151 kts 67°
2026-04-23 00:36 34.16219 -79.68554 1762 ft 156 kts 30°
2026-04-23 00:37 34.17745 -79.68121 2331 ft 140 kts
2026-04-23 00:37 34.18699 -79.67714 2576 ft 150 kts 23°
2026-04-23 00:37 34.19633 -79.67141 2979 ft 142 kts 24°
2026-04-23 00:37 34.20514 -79.66576 3242 ft 148 kts 24°
2026-04-23 00:38 34.21425 -79.65940 3570 ft 145 kts 24°
2026-04-23 00:38 34.22010 -79.65574 3860 ft 138 kts 18°
2026-04-23 00:38 34.22971 -79.65265 4066 ft 143 kts 359°
2026-04-23 00:38 34.23953 -79.65076 4432 ft 137 kts
2026-04-23 00:39 34.24929 -79.64834 4825 ft 136 kts
2026-04-23 00:39 34.25835 -79.64454 5142 ft 137 kts 12°
2026-04-23 00:39 34.26742 -79.64053 5482 ft 135 kts 13°
2026-04-23 00:39 34.27628 -79.63653 5828 ft 133 kts 13°
2026-04-23 00:40 34.28514 -79.63251 6183 ft 131 kts 13°
2026-04-23 00:40 34.29363 -79.62864 6525 ft 130 kts 13°
2026-04-23 00:40 34.30201 -79.62482 6854 ft 128 kts 12°
2026-04-23 00:40 34.31035 -79.62102 7191 ft 125 kts 12°
2026-04-23 00:41 34.31881 -79.61719 7477 ft 129 kts 13°
2026-04-23 00:41 34.32751 -79.61324 7742 ft 134 kts 13°
2026-04-23 00:41 34.33631 -79.60923 8004 ft 138 kts 13°
2026-04-23 00:41 34.34543 -79.60508 8275 ft 142 kts 13°
2026-04-23 00:42 34.35498 -79.60072 8546 ft 143 kts 13°
2026-04-23 00:42 34.36429 -79.59646 8808 ft 143 kts 13°
2026-04-23 00:42 34.37376 -79.59213 9072 ft 144 kts 13°
2026-04-23 00:42 34.38313 -79.58786 9334 ft 144 kts 14°
2026-04-23 00:43 34.39273 -79.58346 9663 ft 140 kts 13°
2026-04-23 00:43 34.40180 -79.57931 9971 ft 138 kts 13°
2026-04-23 00:43 34.41072 -79.57525 10252 ft 136 kts 13°
2026-04-23 00:43 34.41962 -79.57118 10534 ft 134 kts 13°
2026-04-23 00:44 34.42813 -79.56728 10812 ft 132 kts 13°
2026-04-23 00:44 34.43674 -79.56334 11103 ft 129 kts 13°
2026-04-23 00:44 34.44509 -79.55952 11390 ft 127 kts 13°
2026-04-23 00:44 34.45053 -79.55702 11583 ft 126 kts 13°
2026-04-23 00:45 34.45917 -79.55308 11893 ft 123 kts 13°
2026-04-23 00:45 34.46721 -79.54940 12194 ft 121 kts 13°
2026-04-23 00:45 34.47499 -79.54585 12479 ft 119 kts 13°
2026-04-23 00:45 34.48279 -79.54229 12736 ft 120 kts 13°
2026-04-23 00:46 34.49021 -79.53889 12981 ft 121 kts 13°
2026-04-23 00:46 34.49777 -79.53543 13238 ft 122 kts 13°
2026-04-23 00:46 34.50568 -79.53180 13506 ft 122 kts 14°
2026-04-23 00:46 34.51363 -79.52817 13774 ft 122 kts 14°
2026-04-23 00:47 34.52159 -79.52452 14031 ft 122 kts 13°
2026-04-23 00:47 34.52968 -79.52081 14265 ft 123 kts 14°
2026-04-23 00:47 34.53769 -79.51714 14506 ft 123 kts 13°
2026-04-23 00:47 34.54572 -79.51346 14742 ft 124 kts 14°
2026-04-23 00:48 34.55394 -79.50937 14981 ft 125 kts 18°
2026-04-23 00:48 34.56206 -79.50544 15227 ft 124 kts 13°
2026-04-23 00:48 34.57012 -79.50170 15465 ft 124 kts 14°
2026-04-23 00:48 34.57817 -79.49787 15707 ft 124 kts 14°
2026-04-23 00:49 34.58631 -79.49396 15954 ft 124 kts 14°
2026-04-23 00:49 34.59433 -79.49009 16182 ft 125 kts 15°
2026-04-23 00:49 34.60263 -79.48607 16390 ft 128 kts 15°
2026-04-23 00:49 34.61113 -79.48196 16597 ft 131 kts 15°
2026-04-23 00:50 34.61969 -79.47780 16810 ft 134 kts 15°
2026-04-23 00:50 34.62851 -79.47352 17025 ft 136 kts 15°
2026-04-23 00:50 34.63751 -79.46916 17244 ft 138 kts 15°
2026-04-23 00:50 34.64654 -79.46478 17460 ft 141 kts 16°
2026-04-23 00:51 34.65581 -79.46029 17678 ft 143 kts 16°
2026-04-23 00:51 34.66526 -79.45571 17903 ft 145 kts 16°
2026-04-23 00:51 34.67470 -79.45113 18119 ft 147 kts 16°
2026-04-23 00:51 34.68440 -79.44642 18343 ft 149 kts 16°
2026-04-23 00:52 34.69449 -79.44152 18550 ft 151 kts 16°
2026-04-23 00:52 34.70098 -79.43838 18677 ft 152 kts 16°
2026-04-23 00:52 34.71061 -79.43371 18861 ft 154 kts 16°
2026-04-23 00:52 34.72088 -79.42874 19004 ft 160 kts 16°
2026-04-23 00:53 34.73178 -79.42348 19017 ft 173 kts 17°
2026-04-23 00:53 34.74332 -79.41783 19022 ft 185 kts 18°
2026-04-23 00:53 34.75567 -79.41178 19087 ft 190 kts 18°
2026-04-23 00:53 34.76828 -79.40565 19144 ft 196 kts 18°
2026-04-23 00:54 34.78164 -79.39915 19147 ft 204 kts 18°
2026-04-23 00:54 34.79527 -79.39251 19145 ft 210 kts 18°
2026-04-23 00:54 34.80897 -79.38584 19143 ft 214 kts 18°
2026-04-23 00:54 34.82288 -79.37906 19144 ft 216 kts 18°
2026-04-23 00:55 34.83719 -79.37208 19143 ft 216 kts 18°
2026-04-23 00:55 34.85113 -79.36529 19144 ft 215 kts 18°
2026-04-23 00:55 34.86523 -79.35842 19142 ft 215 kts 18°
2026-04-23 00:55 34.87916 -79.35163 19144 ft 216 kts 18°
2026-04-23 00:56 34.89330 -79.34473 19143 ft 216 kts 18°
2026-04-23 00:56 34.90726 -79.33791 19142 ft 216 kts 18°
2026-04-23 00:56 34.92143 -79.33100 19144 ft 216 kts 18°
2026-04-23 00:56 34.93560 -79.32408 19141 ft 217 kts 18°
2026-04-23 00:57 34.94997 -79.31705 19146 ft 217 kts 18°
2026-04-23 00:57 34.96414 -79.31013 19130 ft 217 kts 18°
2026-04-23 00:57 34.97830 -79.30321 19129 ft 216 kts 18°
2026-04-23 00:57 34.99227 -79.29637 19131 ft 216 kts 18°
2026-04-23 00:58 35.00643 -79.28944 19126 ft 216 kts 18°
2026-04-23 00:58 35.02042 -79.28260 19124 ft 217 kts 18°
2026-04-23 00:58 35.03460 -79.27566 19134 ft 216 kts 18°
2026-04-23 00:58 35.04856 -79.26881 19131 ft 216 kts 18°
2026-04-23 00:59 35.06272 -79.26187 19126 ft 216 kts 18°
2026-04-23 00:59 35.07216 -79.25725 19141 ft 216 kts 18°
2026-04-23 00:59 35.08633 -79.25030 19143 ft 216 kts 18°
2026-04-23 00:59 35.10031 -79.24344 19150 ft 216 kts 18°
2026-04-23 01:00 35.11429 -79.23658 19145 ft 217 kts 18°
2026-04-23 01:00 35.12824 -79.22974 19144 ft 216 kts 18°
2026-04-23 01:00 35.14223 -79.22287 19147 ft 216 kts 19°
2026-04-23 01:00 35.15618 -79.21602 19141 ft 216 kts 18°
2026-04-23 01:01 35.17110 -79.20867 19126 ft 216 kts 18°
2026-04-23 01:01 35.18652 -79.20110 19129 ft 216 kts 18°
2026-04-23 01:01 35.19622 -79.19633 19136 ft 216 kts 18°
2026-04-23 01:01 35.21189 -79.18862 19127 ft 216 kts 18°
2026-04-23 01:02 35.22730 -79.18104 19129 ft 216 kts 18°
2026-04-23 01:02 35.24163 -79.17398 19129 ft 216 kts 18°
2026-04-23 01:02 35.25558 -79.16711 19133 ft 216 kts 18°
2026-04-23 01:02 35.26951 -79.16025 19129 ft 216 kts 18°
2026-04-23 01:03 35.28364 -79.15328 19129 ft 216 kts 18°
2026-04-23 01:03 35.29743 -79.14648 19130 ft 216 kts 18°
2026-04-23 01:03 35.31136 -79.13961 19130 ft 216 kts 18°
2026-04-23 01:03 35.32530 -79.13273 19134 ft 216 kts 18°
2026-04-23 01:04 35.33924 -79.12585 19134 ft 216 kts 18°
2026-04-23 01:04 35.35316 -79.11897 19132 ft 216 kts 18°
2026-04-23 01:04 35.38101 -79.10522 19152 ft 216 kts 18°
2026-04-23 01:05 35.39491 -79.09835 19151 ft 216 kts 18°
2026-04-23 01:05 35.40888 -79.09144 19159 ft 216 kts 18°
2026-04-23 01:05 35.42283 -79.08453 19161 ft 216 kts 18°
2026-04-23 01:05 35.43694 -79.07755 19165 ft 216 kts 18°
2026-04-23 01:06 35.45088 -79.07065 19161 ft 216 kts 18°
2026-04-23 01:06 35.46487 -79.06372 19163 ft 216 kts 18°
2026-04-23 01:06 35.47910 -79.05667 19163 ft 216 kts 18°
2026-04-23 01:06 35.49333 -79.04962 19171 ft 216 kts 18°
2026-04-23 01:07 35.50743 -79.04262 19167 ft 216 kts 18°
2026-04-23 01:07 35.52195 -79.03542 19179 ft 216 kts 18°
2026-04-23 01:07 35.53140 -79.03073 19168 ft 216 kts 18°
2026-04-23 01:07 35.54571 -79.02363 19169 ft 216 kts 18°
2026-04-23 01:08 35.56001 -79.01652 19170 ft 216 kts 18°
2026-04-23 01:08 35.57411 -79.00952 19172 ft 216 kts 18°
2026-04-23 01:08 35.58841 -79.00242 19169 ft 216 kts 18°
2026-04-23 01:08 35.60249 -78.99542 19172 ft 216 kts 18°
2026-04-23 01:09 35.61638 -78.98851 19169 ft 215 kts 18°
2026-04-23 01:09 35.63028 -78.98159 19170 ft 215 kts 18°
2026-04-23 01:09 35.64486 -78.97433 19167 ft 215 kts 18°
2026-04-23 01:09 35.65872 -78.96743 19164 ft 215 kts 17°
2026-04-23 01:10 35.67296 -78.96034 19165 ft 215 kts 17°
2026-04-23 01:10 35.68700 -78.95335 19163 ft 215 kts 17°
2026-04-23 01:10 35.70142 -78.94616 19166 ft 215 kts 17°
2026-04-23 01:10 35.71544 -78.93916 19160 ft 215 kts 17°
2026-04-23 01:11 35.72591 -78.93394 19161 ft 215 kts 17°
2026-04-23 01:11 35.73935 -78.92724 19166 ft 215 kts 17°
2026-04-23 01:11 35.75245 -78.92070 19164 ft 215 kts 17°
2026-04-23 01:11 35.76633 -78.91377 19165 ft 215 kts 17°
2026-04-23 01:12 35.78016 -78.90686 19167 ft 215 kts 17°
2026-04-23 01:12 35.79416 -78.89986 19166 ft 214 kts 17°
2026-04-23 01:12 35.80818 -78.89285 19170 ft 214 kts 17°
2026-04-23 01:12 35.82218 -78.88585 19171 ft 214 kts 17°
2026-04-23 01:13 35.83566 -78.87911 19170 ft 214 kts 17°
2026-04-23 01:13 35.84958 -78.87214 19172 ft 214 kts 17°
2026-04-23 01:13 35.86364 -78.86510 19172 ft 214 kts 17°
2026-04-23 01:13 35.87797 -78.85792 19170 ft 214 kts 17°
2026-04-23 01:14 35.89196 -78.85091 19171 ft 214 kts 17°
2026-04-23 01:14 35.90576 -78.84400 19170 ft 214 kts 17°
2026-04-23 01:14 35.91954 -78.83709 19174 ft 214 kts 17°
2026-04-23 01:14 35.93331 -78.83018 19170 ft 214 kts 17°
2026-04-23 01:15 35.94725 -78.82318 19172 ft 213 kts 17°
2026-04-23 01:15 35.96119 -78.81618 19172 ft 213 kts 17°
2026-04-23 01:15 35.97543 -78.80903 19170 ft 213 kts 17°
2026-04-23 01:15 35.98900 -78.80221 19171 ft 213 kts 17°
2026-04-23 01:16 35.99829 -78.79754 19168 ft 213 kts 17°
2026-04-23 01:16 36.01646 -78.78841 19167 ft 213 kts 17°
2026-04-23 01:16 36.03033 -78.78143 19169 ft 213 kts 17°
2026-04-23 01:16 36.04420 -78.77445 19168 ft 212 kts 17°
2026-04-23 01:17 36.05825 -78.76737 19165 ft 212 kts 17°
2026-04-23 01:17 36.07178 -78.76057 19164 ft 212 kts 17°
2026-04-23 01:17 36.08545 -78.75369 19165 ft 212 kts 17°
2026-04-23 01:17 36.09785 -78.74744 19166 ft 212 kts 17°
2026-04-23 01:18 36.10871 -78.74196 19164 ft 212 kts 17°
2026-04-23 01:18 36.12236 -78.73507 19161 ft 212 kts 17°
2026-04-23 01:18 36.13616 -78.72811 19167 ft 211 kts 17°
2026-04-23 01:18 36.14982 -78.72122 19166 ft 211 kts 17°
2026-04-23 01:19 36.16357 -78.71428 19152 ft 211 kts 17°
2026-04-23 01:19 36.17715 -78.70742 19150 ft 211 kts 17°
2026-04-23 01:19 36.19063 -78.70061 19151 ft 211 kts 17°
2026-04-23 01:19 36.20430 -78.69370 19155 ft 210 kts 17°
2026-04-23 01:20 36.21793 -78.68681 19153 ft 210 kts 17°
2026-04-23 01:20 36.23175 -78.67982 19153 ft 210 kts 17°
2026-04-23 01:20 36.24528 -78.67298 19153 ft 210 kts 17°
2026-04-23 01:20 36.25898 -78.66604 19150 ft 210 kts 17°
2026-04-23 01:21 36.27288 -78.65900 19152 ft 210 kts 17°
2026-04-23 01:21 36.28637 -78.65217 19152 ft 210 kts 17°
2026-04-23 01:21 36.30004 -78.64524 19153 ft 210 kts 17°
2026-04-23 01:21 36.31352 -78.63841 19155 ft 210 kts 17°
2026-04-23 01:22 36.32798 -78.63108 19155 ft 210 kts 17°
2026-04-23 01:22 36.34109 -78.62442 19152 ft 210 kts 17°
2026-04-23 01:22 36.35487 -78.61744 19151 ft 210 kts 17°
2026-04-23 01:22 36.36846 -78.61053 19154 ft 210 kts 17°
2026-04-23 01:23 36.38209 -78.60361 19154 ft 210 kts 17°
2026-04-23 01:23 36.39542 -78.59683 19154 ft 210 kts 17°
2026-04-23 01:23 36.40955 -78.58966 19153 ft 210 kts 17°
2026-04-23 01:23 36.42285 -78.58289 19153 ft 210 kts 17°
2026-04-23 01:24 36.43672 -78.57584 19154 ft 210 kts 17°
2026-04-23 01:24 36.45016 -78.56851 19153 ft 212 kts 22°
2026-04-23 01:24 36.46341 -78.56007 19152 ft 211 kts 20°
2026-04-23 01:24 36.47668 -78.55219 19152 ft 211 kts 20°
2026-04-23 01:25 36.48560 -78.54679 19150 ft 212 kts 20°
2026-04-23 01:25 36.49894 -78.53857 19149 ft 212 kts 21°
2026-04-23 01:25 36.51272 -78.53008 19150 ft 212 kts 21°
2026-04-23 01:25 36.52630 -78.52171 19152 ft 211 kts 20°
2026-04-23 01:26 36.53981 -78.51340 19145 ft 212 kts 21°
2026-04-23 01:26 36.55315 -78.50519 19146 ft 212 kts 20°
2026-04-23 01:26 36.56630 -78.49707 19142 ft 211 kts 21°
2026-04-23 01:26 36.57951 -78.48893 19138 ft 211 kts 21°
2026-04-23 01:27 36.59267 -78.48082 19138 ft 211 kts 20°
2026-04-23 01:27 36.60587 -78.47267 19140 ft 211 kts 21°
2026-04-23 01:27 36.61905 -78.46454 19138 ft 211 kts 20°
2026-04-23 01:27 36.63221 -78.45641 19140 ft 211 kts 20°
2026-04-23 01:28 36.64541 -78.44826 19144 ft 211 kts 20°
2026-04-23 01:28 36.65857 -78.44013 19143 ft 211 kts 20°
2026-04-23 01:28 36.67171 -78.43201 19143 ft 212 kts 21°
2026-04-23 01:28 36.68500 -78.42379 19141 ft 212 kts 20°
2026-04-23 01:29 36.69820 -78.41563 19146 ft 212 kts 21°
2026-04-23 01:29 36.71139 -78.40746 19139 ft 212 kts 20°
2026-04-23 01:29 36.72458 -78.39930 19143 ft 212 kts 20°
2026-04-23 01:29 36.73777 -78.39113 19144 ft 212 kts 21°
2026-04-23 01:30 36.75097 -78.38295 19143 ft 212 kts 21°
2026-04-23 01:30 36.76419 -78.37475 19141 ft 212 kts 20°
2026-04-23 01:30 36.77700 -78.36681 19139 ft 212 kts 20°
2026-04-23 01:30 36.79037 -78.35852 19141 ft 212 kts 21°
2026-04-23 01:31 36.80364 -78.35028 19141 ft 212 kts 20°
2026-04-23 01:31 36.81682 -78.34210 19141 ft 212 kts 21°
2026-04-23 01:31 36.83005 -78.33388 19138 ft 212 kts 21°
2026-04-23 01:31 36.84322 -78.32571 19140 ft 212 kts 21°
2026-04-23 01:32 36.85665 -78.31736 19136 ft 212 kts 21°
2026-04-23 01:32 36.87021 -78.30893 19133 ft 212 kts 21°
2026-04-23 01:32 36.88317 -78.30086 19135 ft 212 kts 21°
2026-04-23 01:32 36.89668 -78.29247 19130 ft 212 kts 21°
2026-04-23 01:33 36.90983 -78.28427 19131 ft 212 kts 21°
2026-04-23 01:33 36.92307 -78.27603 19128 ft 212 kts 21°
2026-04-23 01:33 36.93626 -78.26782 19128 ft 212 kts 21°
2026-04-23 01:33 36.94945 -78.25959 19125 ft 212 kts 21°
2026-04-23 01:34 36.96263 -78.25138 19110 ft 212 kts 21°
2026-04-23 01:34 36.97579 -78.24316 19111 ft 212 kts 21°
2026-04-23 01:34 36.98897 -78.23494 19112 ft 212 kts 21°
2026-04-23 01:34 37.00213 -78.22674 19109 ft 212 kts 21°
2026-04-23 01:35 37.01588 -78.21815 19107 ft 212 kts 21°
2026-04-23 01:35 37.02906 -78.20991 19108 ft 212 kts 21°
2026-04-23 01:35 37.04244 -78.20155 19106 ft 212 kts 21°
2026-04-23 01:35 37.05561 -78.19332 19109 ft 212 kts 21°
2026-04-23 01:36 37.06901 -78.18493 19110 ft 212 kts 21°
2026-04-23 01:36 37.08236 -78.17658 19109 ft 212 kts 21°
2026-04-23 01:36 37.09531 -78.16848 19105 ft 211 kts 21°
2026-04-23 01:36 37.10847 -78.16024 19106 ft 212 kts 21°
2026-04-23 01:37 37.12181 -78.15188 19107 ft 212 kts 21°
2026-04-23 01:37 37.13071 -78.14631 19107 ft 212 kts 21°
2026-04-23 01:37 37.14388 -78.13805 19105 ft 212 kts 21°
2026-04-23 01:37 37.15705 -78.12979 19105 ft 211 kts 21°
2026-04-23 01:38 37.17037 -78.12144 19105 ft 211 kts 21°
2026-04-23 01:38 37.18352 -78.11319 19104 ft 211 kts 21°
2026-04-23 01:38 37.19716 -78.10462 19105 ft 211 kts 21°
2026-04-23 01:38 37.20997 -78.09658 19104 ft 211 kts 21°
2026-04-23 01:39 37.22311 -78.08833 19105 ft 211 kts 21°
2026-04-23 01:39 37.23639 -78.07998 19107 ft 211 kts 21°
2026-04-23 01:39 37.24972 -78.07160 19102 ft 211 kts 21°
2026-04-23 01:39 37.26267 -78.06345 19100 ft 211 kts 21°
2026-04-23 01:40 37.27605 -78.05503 19099 ft 211 kts 21°
2026-04-23 01:40 37.29066 -78.04583 19103 ft 211 kts 21°
2026-04-23 01:40 37.30376 -78.03758 19099 ft 210 kts 21°
2026-04-23 01:40 37.31702 -78.02923 19097 ft 211 kts 21°
2026-04-23 01:41 37.33050 -78.02074 19097 ft 210 kts 21°
2026-04-23 01:41 37.34355 -78.01250 19099 ft 210 kts 21°
2026-04-23 01:41 37.35664 -78.00425 19096 ft 210 kts 21°
2026-04-23 01:41 37.36990 -77.99588 19096 ft 210 kts 21°
2026-04-23 01:42 37.38313 -77.98753 19083 ft 211 kts 21°
2026-04-23 01:42 37.39666 -77.97905 18895 ft 215 kts 20°
2026-04-23 01:42 37.41055 -77.97243 18712 ft 213 kts 15°
2026-04-23 01:42 37.42021 -77.96792 18583 ft 214 kts 16°
2026-04-23 01:43 37.43402 -77.96128 18402 ft 213 kts 16°
2026-04-23 01:43 37.44808 -77.95460 18192 ft 213 kts 15°
2026-04-23 01:43 37.46197 -77.94805 17981 ft 213 kts 16°
2026-04-23 01:43 37.47580 -77.94152 17768 ft 211 kts 15°
2026-04-23 01:44 37.48941 -77.93507 17556 ft 209 kts 15°
2026-04-23 01:44 37.50364 -77.92835 17335 ft 208 kts 15°
2026-04-23 01:44 37.51735 -77.92187 17117 ft 207 kts 15°
2026-04-23 01:44 37.53097 -77.91542 16909 ft 206 kts 15°
2026-04-23 01:45 37.54516 -77.90870 16686 ft 204 kts 15°
2026-04-23 01:45 37.55852 -77.90237 16481 ft 203 kts 15°
2026-04-23 01:45 37.57152 -77.89621 16276 ft 202 kts 15°
2026-04-23 01:45 37.58505 -77.88980 16069 ft 201 kts 15°
2026-04-23 01:46 37.59847 -77.88344 15861 ft 200 kts 15°
2026-04-23 01:46 37.61148 -77.87726 15660 ft 200 kts 15°
2026-04-23 01:46 37.62446 -77.87110 15457 ft 199 kts 15°
2026-04-23 01:46 37.63758 -77.86488 15261 ft 199 kts 15°
2026-04-23 01:47 37.65049 -77.85874 15066 ft 198 kts 15°
2026-04-23 01:47 37.66339 -77.85262 14870 ft 198 kts 15°
2026-04-23 01:47 37.67627 -77.84649 14675 ft 197 kts 15°
2026-04-23 01:47 37.68910 -77.84039 14485 ft 197 kts 15°
2026-04-23 01:48 37.70243 -77.83405 14280 ft 197 kts 15°
2026-04-23 01:48 37.71524 -77.82796 14094 ft 196 kts 15°
2026-04-23 01:48 37.72821 -77.82178 13908 ft 197 kts 15°
2026-04-23 01:48 37.74106 -77.81567 13700 ft 197 kts 15°
2026-04-23 01:49 37.74954 -77.81163 13567 ft 198 kts 15°
2026-04-23 01:49 37.76324 -77.80510 13339 ft 198 kts 15°
2026-04-23 01:49 37.77753 -77.79828 13110 ft 198 kts 16°
2026-04-23 01:49 37.79057 -77.79206 13043 ft 196 kts 16°
2026-04-23 01:50 37.80336 -77.78597 13046 ft 197 kts 16°
2026-04-23 01:50 37.81619 -77.77986 13048 ft 197 kts 16°
2026-04-23 01:50 37.82921 -77.77363 13048 ft 198 kts 16°
2026-04-23 01:50 37.84211 -77.76747 13046 ft 199 kts 16°
2026-04-23 01:51 37.85522 -77.76120 13051 ft 199 kts 16°
2026-04-23 01:51 37.86822 -77.75500 13046 ft 200 kts 16°
2026-04-23 01:51 37.88123 -77.74877 13046 ft 200 kts 16°
2026-04-23 01:51 37.89446 -77.74244 13048 ft 200 kts 16°
2026-04-23 01:52 37.90784 -77.73604 13050 ft 201 kts 16°
2026-04-23 01:52 37.92109 -77.72970 13047 ft 201 kts 17°
2026-04-23 01:52 37.93415 -77.72344 13049 ft 201 kts 17°
2026-04-23 01:52 37.94736 -77.71711 13048 ft 201 kts 17°
2026-04-23 01:53 37.96063 -77.71075 13048 ft 201 kts 17°
2026-04-23 01:53 37.96963 -77.70643 13049 ft 201 kts 17°
2026-04-23 01:53 37.98395 -77.69957 13050 ft 201 kts 17°
2026-04-23 01:53 37.99731 -77.69316 13045 ft 201 kts 17°
2026-04-23 01:54 38.01147 -77.68636 13045 ft 201 kts 17°
2026-04-23 01:54 38.02492 -77.67990 13046 ft 200 kts 17°
2026-04-23 01:54 38.03796 -77.67364 13042 ft 200 kts 17°
2026-04-23 01:54 38.04728 -77.66916 13042 ft 200 kts 17°
2026-04-23 01:55 38.06180 -77.66219 13041 ft 200 kts 17°
2026-04-23 01:55 38.07545 -77.65562 13031 ft 200 kts 17°
2026-04-23 01:55 38.09008 -77.64858 13032 ft 200 kts 17°
2026-04-23 01:55 38.09955 -77.64402 13030 ft 200 kts 17°
2026-04-23 01:56 38.11349 -77.63731 13032 ft 199 kts 17°
2026-04-23 01:56 38.12653 -77.63103 13032 ft 199 kts 17°
2026-04-23 01:56 38.13968 -77.62470 13031 ft 199 kts 17°
2026-04-23 01:56 38.15297 -77.61829 13031 ft 199 kts 17°
2026-04-23 01:57 38.16589 -77.61207 13033 ft 199 kts 17°
2026-04-23 01:57 38.17879 -77.60584 13033 ft 198 kts 17°
2026-04-23 01:57 38.19189 -77.59952 13035 ft 198 kts 17°
2026-04-23 01:57 38.20475 -77.59331 13036 ft 198 kts 17°
2026-04-23 01:58 38.21813 -77.58685 13033 ft 198 kts 17°
2026-04-23 01:58 38.23099 -77.58064 13039 ft 197 kts 17°
2026-04-23 01:58 38.24382 -77.57444 13031 ft 197 kts 17°
2026-04-23 01:58 38.25682 -77.56815 13033 ft 197 kts 17°
2026-04-23 01:59 38.27018 -77.56169 13036 ft 197 kts 17°
2026-04-23 01:59 38.28311 -77.55544 13037 ft 197 kts 17°
2026-04-23 01:59 38.29590 -77.54924 13033 ft 197 kts 17°
2026-04-23 01:59 38.30868 -77.54306 13037 ft 196 kts 17°
2026-04-23 02:00 38.31753 -77.53877 13028 ft 197 kts 17°
2026-04-23 02:00 38.33460 -77.53050 13037 ft 197 kts 17°
2026-04-23 02:00 38.34739 -77.52431 13030 ft 196 kts 17°
2026-04-23 02:00 38.36031 -77.51804 13025 ft 196 kts 17°
2026-04-23 02:01 38.36892 -77.51386 13030 ft 196 kts 17°
2026-04-23 02:01 38.38184 -77.50759 13032 ft 196 kts 17°
2026-04-23 02:01 38.39474 -77.50133 13039 ft 196 kts 17°
2026-04-23 02:01 38.40752 -77.49512 13035 ft 196 kts 17°
2026-04-23 02:02 38.42079 -77.48867 13032 ft 196 kts 17°
2026-04-23 02:02 38.43330 -77.48260 13033 ft 196 kts 17°
2026-04-23 02:02 38.44592 -77.47646 13033 ft 196 kts 16°
2026-04-23 02:02 38.45882 -77.47018 13030 ft 196 kts 16°
2026-04-23 02:03 38.47154 -77.46399 13036 ft 196 kts 16°
2026-04-23 02:03 38.48439 -77.45774 13031 ft 196 kts 16°
2026-04-23 02:03 38.49740 -77.45141 13033 ft 196 kts 16°
2026-04-23 02:03 38.50962 -77.44545 13033 ft 195 kts 16°
2026-04-23 02:04 38.52267 -77.43910 13043 ft 195 kts 16°
2026-04-23 02:04 38.53554 -77.43283 12958 ft 199 kts 16°
2026-04-23 02:04 38.54851 -77.42650 12754 ft 198 kts 16°
2026-04-23 02:04 38.56141 -77.42018 12548 ft 197 kts 16°
2026-04-23 02:05 38.57447 -77.41381 12339 ft 196 kts 16°
2026-04-23 02:05 38.58702 -77.40769 12139 ft 194 kts 16°
2026-04-23 02:05 38.59991 -77.40140 11926 ft 193 kts 15°
2026-04-23 02:05 38.61287 -77.39507 11722 ft 193 kts 16°
2026-04-23 02:06 38.62576 -77.38877 11515 ft 192 kts 15°
2026-04-23 02:06 38.63818 -77.38269 11319 ft 191 kts 15°
2026-04-23 02:06 38.65071 -77.37656 11120 ft 190 kts 15°
2026-04-23 02:06 38.66349 -77.37030 10917 ft 189 kts 15°
2026-04-23 02:07 38.67533 -77.36452 10732 ft 188 kts 15°
2026-04-23 02:07 38.68463 -77.35996 10582 ft 188 kts 15°
2026-04-23 02:07 38.69677 -77.35401 10384 ft 187 kts 15°
2026-04-23 02:07 38.70990 -77.34758 10144 ft 187 kts 15°
2026-04-23 02:08 38.72148 -77.34191 9996 ft 184 kts 15°
2026-04-23 02:08 38.73343 -77.33601 9989 ft 175 kts 14°
2026-04-23 02:08 38.74440 -77.33064 9977 ft 168 kts 14°
2026-04-23 02:08 38.75524 -77.32534 9981 ft 164 kts 14°
2026-04-23 02:09 38.76590 -77.32012 9979 ft 163 kts 14°
2026-04-23 02:09 38.77676 -77.31483 9984 ft 168 kts 14°
2026-04-23 02:09 38.78830 -77.30916 9988 ft 173 kts 14°
2026-04-23 02:09 38.79934 -77.30373 9996 ft 176 kts 14°
2026-04-23 02:10 38.81159 -77.29769 10000 ft 179 kts 14°
2026-04-23 02:10 38.82319 -77.29198 9998 ft 181 kts 15°
2026-04-23 02:10 38.83504 -77.28615 9998 ft 182 kts 15°
2026-04-23 02:10 38.84728 -77.28012 9998 ft 183 kts 15°
2026-04-23 02:11 38.85957 -77.27408 9999 ft 184 kts 15°
2026-04-23 02:11 38.87178 -77.26806 10014 ft 184 kts 15°
2026-04-23 02:11 38.88368 -77.26220 10017 ft 184 kts 14°
2026-04-23 02:11 38.89169 -77.25825 10017 ft 184 kts 15°
2026-04-23 02:12 38.90384 -77.25227 10015 ft 185 kts 14°
2026-04-23 02:12 38.91608 -77.24623 10016 ft 185 kts 15°
2026-04-23 02:12 38.92827 -77.24021 10017 ft 185 kts 14°
2026-04-23 02:12 38.94063 -77.23412 10017 ft 185 kts 15°
2026-04-23 02:13 38.95251 -77.22825 10013 ft 186 kts 14°
2026-04-23 02:13 38.96493 -77.22212 10016 ft 185 kts 14°
2026-04-23 02:13 38.97710 -77.21611 10012 ft 185 kts 14°
2026-04-23 02:13 38.98927 -77.21010 10025 ft 185 kts 14°
2026-04-23 02:14 39.00348 -77.20308 10026 ft 185 kts 14°
2026-04-23 02:14 39.01486 -77.19744 10028 ft 185 kts 14°
2026-04-23 02:14 39.02361 -77.19311 10029 ft 185 kts 14°
2026-04-23 02:14 39.03536 -77.18729 10031 ft 184 kts 14°
2026-04-23 02:15 39.05965 -77.17527 10033 ft 185 kts 14°
2026-04-23 02:15 39.07158 -77.16936 10034 ft 185 kts 14°
2026-04-23 02:15 39.08375 -77.16333 10036 ft 185 kts 14°
2026-04-23 02:16 39.09653 -77.15699 10035 ft 185 kts 14°
2026-04-23 02:16 39.10833 -77.15114 10037 ft 185 kts 14°
2026-04-23 02:16 39.12079 -77.14496 10036 ft 184 kts 14°
2026-04-23 02:16 39.13270 -77.13905 10035 ft 184 kts 14°
2026-04-23 02:17 39.14458 -77.13315 10033 ft 184 kts 14°
2026-04-23 02:17 39.15643 -77.12726 10036 ft 184 kts 14°
2026-04-23 02:17 39.16841 -77.12131 10034 ft 184 kts 14°
2026-04-23 02:17 39.18035 -77.11538 10034 ft 184 kts 14°
2026-04-23 02:18 39.19282 -77.11053 10036 ft 181 kts
2026-04-23 02:18 39.20525 -77.10691 10036 ft 181 kts
2026-04-23 02:18 39.21729 -77.10288 10036 ft 181 kts
2026-04-23 02:18 39.23016 -77.09843 10034 ft 181 kts
2026-04-23 02:19 39.24198 -77.09436 10036 ft 181 kts
2026-04-23 02:19 39.25389 -77.09027 10034 ft 181 kts
2026-04-23 02:19 39.26529 -77.08634 10029 ft 181 kts
2026-04-23 02:19 39.27707 -77.08230 10031 ft 181 kts
2026-04-23 02:20 39.28909 -77.07815 10033 ft 180 kts
2026-04-23 02:20 39.30088 -77.07410 10034 ft 180 kts
2026-04-23 02:20 39.31328 -77.06983 10029 ft 180 kts
2026-04-23 02:20 39.32554 -77.06560 10031 ft 180 kts
2026-04-23 02:21 39.33852 -77.06113 10032 ft 179 kts
2026-04-23 02:21 39.35071 -77.05693 10030 ft 179 kts
2026-04-23 02:21 39.36284 -77.05274 10032 ft 179 kts
2026-04-23 02:21 39.37106 -77.04990 10029 ft 179 kts
2026-04-23 02:22 39.38385 -77.04549 10022 ft 179 kts
2026-04-23 02:22 39.39215 -77.04263 10029 ft 179 kts
2026-04-23 02:22 39.40848 -77.03698 10026 ft 178 kts
2026-04-23 02:22 39.42035 -77.03288 10023 ft 179 kts
2026-04-23 02:23 39.43252 -77.02868 10024 ft 179 kts
2026-04-23 02:23 39.44479 -77.02446 9934 ft 183 kts
2026-04-23 02:23 39.45725 -77.02013 9815 ft 187 kts
2026-04-23 02:23 39.47009 -77.01568 9682 ft 190 kts
2026-04-23 02:24 39.48288 -77.01125 9559 ft 191 kts
2026-04-23 02:24 39.49566 -77.00681 9524 ft 189 kts
2026-04-23 02:24 39.50836 -77.00240 9519 ft 185 kts
2026-04-23 02:24 39.52098 -76.99803 9522 ft 183 kts
2026-04-23 02:25 39.53350 -76.99370 9517 ft 182 kts
2026-04-23 02:25 39.54568 -76.98948 9517 ft 181 kts
2026-04-23 02:25 39.55784 -76.98526 9513 ft 180 kts
2026-04-23 02:25 39.57005 -76.98103 9512 ft 180 kts
2026-04-23 02:26 39.58266 -76.97665 9513 ft 180 kts
2026-04-23 02:26 39.59477 -76.97244 9512 ft 180 kts
2026-04-23 02:26 39.60696 -76.96820 9508 ft 179 kts
2026-04-23 02:26 39.61513 -76.96537 9514 ft 180 kts
2026-04-23 02:27 39.63115 -76.95980 9514 ft 180 kts
2026-04-23 02:27 39.63936 -76.95694 9513 ft 180 kts
2026-04-23 02:27 39.65160 -76.95268 9512 ft 179 kts
2026-04-23 02:27 39.66359 -76.94851 9514 ft 180 kts
2026-04-23 02:28 39.67583 -76.94425 9513 ft 179 kts
2026-04-23 02:28 39.68787 -76.94005 9513 ft 179 kts
2026-04-23 02:28 39.69994 -76.93586 9498 ft 180 kts
2026-04-23 02:28 39.71260 -76.93148 9237 ft 187 kts
2026-04-23 02:29 39.72565 -76.92686 8963 ft 184 kts
2026-04-23 02:29 39.73791 -76.92257 8701 ft 182 kts
2026-04-23 02:29 39.75006 -76.91836 8441 ft 180 kts
2026-04-23 02:29 39.76194 -76.91422 8169 ft 179 kts
2026-04-23 02:30 39.77411 -76.90998 7913 ft 179 kts
2026-04-23 02:30 39.78613 -76.90576 7662 ft 178 kts
2026-04-23 02:30 39.79840 -76.90147 7408 ft 178 kts
2026-04-23 02:30 39.81078 -76.89715 7152 ft 178 kts
2026-04-23 02:31 39.82225 -76.89314 6920 ft 178 kts
2026-04-23 02:31 39.83435 -76.88891 6676 ft 178 kts
2026-04-23 02:31 39.84650 -76.88465 6433 ft 178 kts
2026-04-23 02:31 39.85851 -76.88045 6181 ft 179 kts
2026-04-23 02:32 39.87050 -76.87625 5926 ft 178 kts
2026-04-23 02:32 39.88236 -76.87209 5681 ft 178 kts
2026-04-23 02:32 39.89446 -76.86784 5428 ft 177 kts
2026-04-23 02:32 39.90394 -76.86453 5227 ft 176 kts
2026-04-23 02:33 39.91628 -76.85957 4969 ft 179 kts 20°
2026-04-23 02:33 39.92349 -76.85391 4810 ft 182 kts 27°
2026-04-23 02:33 39.93786 -76.84112 4457 ft 181 kts 28°
2026-04-23 02:33 39.94871 -76.83155 4199 ft 181 kts 27°
2026-04-23 02:34 39.95556 -76.82549 4033 ft 180 kts 28°
2026-04-23 02:34 39.96966 -76.81301 3700 ft 181 kts 28°
2026-04-23 02:34 39.98016 -76.80378 3451 ft 181 kts 28°
2026-04-23 02:34 39.99070 -76.79455 3202 ft 180 kts 28°
2026-04-23 02:35 40.00123 -76.78536 2995 ft 177 kts 28°
2026-04-23 02:35 40.00818 -76.77930 2991 ft 173 kts 28°
2026-04-23 02:35 40.01838 -76.77048 2987 ft 176 kts 28°
2026-04-23 02:35 40.02857 -76.76174 2989 ft 177 kts 28°
2026-04-23 02:36 40.03921 -76.75260 2993 ft 178 kts 28°
2026-04-23 02:36 40.04938 -76.74388 2994 ft 179 kts 27°
2026-04-23 02:36 40.05984 -76.73487 2998 ft 179 kts 28°
2026-04-23 02:36 40.07037 -76.72587 2999 ft 179 kts 27°
2026-04-23 02:37 40.08094 -76.71683 2996 ft 179 kts 27°
2026-04-23 02:37 40.09209 -76.70737 2997 ft 180 kts 28°
2026-04-23 02:37 40.10302 -76.69804 2998 ft 181 kts 28°
2026-04-23 02:37 40.11372 -76.68895 2999 ft 180 kts 27°
2026-04-23 02:38 40.12412 -76.68071 2837 ft 170 kts 21°
2026-04-23 02:38 40.13518 -76.67524 2518 ft 165 kts
2026-04-23 02:38 40.14611 -76.67476 2494 ft 135 kts 342°
2026-04-23 02:38 40.15404 -76.67923 2318 ft 126 kts 317°
2026-04-23 02:39 40.16043 -76.68731 1943 ft 131 kts 307°
2026-04-23 02:39 40.16614 -76.69674 1563 ft 133 kts 303°
2026-04-23 02:39 40.17125 -76.70664 1288 ft 128 kts 296°
2026-04-23 02:39 40.17530 -76.71707 1013 ft 123 kts 295°
2026-04-23 02:40 40.17799 -76.72414 807 ft 122 kts 296°
2026-04-23 02:40 40.18159 -76.73368 595 ft 117 kts 297°
2026-04-23 02:40 40.18550 -76.74309 448 ft 116 kts 298°
2026-04-23 02:40 40.18918 -76.75232 315 ft 103 kts 297°
2026-04-23 02:41 40.19199 -76.75942 314 ft 67 kts 297°
2026-04-23 02:41 40.19359 -76.76360 310 ft 43 kts 298°
2026-04-23 02:41 40.19483 -76.76671 312 ft 22 kts 300°
2026-04-23 02:41 40.19573 -76.76668 312 ft 9 kts 20°
2026-04-23 02:42 40.19579 -76.76665 312 ft 0 kts 19°
2026-04-23 02:42 40.19601 -76.76677 312 ft 8 kts 308°
2026-04-23 02:42 40.19650 -76.76766 314 ft 17 kts 353°
2026-04-23 02:43 40.19738 -76.76783 313 ft 14 kts 214°
2026-04-23 02:43 40.19751 -76.76801 313 ft 1 kts 21°